Location: Acheville
(50.3840°N, 2.8827°E)
Time: 11:31:21
(UTC+00:00)

USA 229 - Pass Details

Date: 24 October 2021
Orbit: 946 x 1266 km, 63.4° (Epoch: 25 November)

Event Time Altitude Azimuth Distance (km) Brightness Sun altitude
Rises 19:15:06 0° 226° (SW) 3,649 6.9 -25.5°
Reaches altitude 10° 19:17:36 10° 227° (SW) 2,732 6.2 -25.9°
Maximum altitude 19:24:01 81° 314° (NW) 1,048 3.6 -26.9°
Enters shadow 19:26:59 37° 38° (NE) 1,590 4.4 -27.3°
